Torna al catalogo

USA 40 R/B DEB

AttivoUNKNOWN
NORAD 23359·DEBRIS·🇺🇸 United States

Lanciato Aug 8, 1989 da Cape Canaveral Space Force Station

Loading…

Prossimi Passaggi (prossime 24 ore)

TLE

AggiornatoSource: Space-Track

Epoca: Sep 13, 2026, 11:58 UTC

1 23359U 89061AF  26256.49871048  .00004061  00000-0  21500-2 0  9999
2 23359  56.8863 292.0548 2128977 104.2790 280.2409 10.59954925278987

Traccia USA 40 R/B DEB in tempo reale con AllMySat

Download on the App Store